Regional Weather Roundup
Issued by NWS

Home | Current Version | Previous Version | Text Only | Print | Product List | Glossary On
Versions: 1 2 3 4 5 6 7 8 9 10 11 12 13 14 15 16 17 18 19 20 21 22 23 24 25 26 27 28 29 30 31 32 33 34 35 36 37 38 39 40 41 42 43 44 45 46 47 48 49 50
000
ASUS44 KLIX 301010
RWRLA
LOUISIANA WEATHER ROUNDUP
NATIONAL WEATHER SERVICE NEW ORLEANS LA
500 AM CDT SAT AUG 30 2014

NOTE: "FAIR" INDICATES FEW OR NO CLOUDS BELOW 12,000 FEET WITH NO
      SIGNIFICANT WEATHER AND/OR OBSTRUCTIONS TO VISIBILITY.
      SKY/WX - SKY CONDITION AND SIGNIFICANT WEATHER.
      TMP - AIR TEMPERATURE.    DP   - DEWPOINT TEMPERATURE.
      RH  - RELATIVE HUMIDITY.  PRES - PRESSURE.
      HX  - HEAT INDEX.         WCI  - WIND CHILL INDEX.

*  THESE STATIONS ARE NOT NWS OR FAA STATIONS AND ARE NOT UNDER
   NWS QUALITY CONTROL.

LAZ040-048-061>063-065-066-069-301100-
SOUTHEAST LOUISIANA

CITY           SKY/WX    TMP DP  RH WIND       PRES   REMARKS
N.O. AUDUBON     N/A     81  78  92 MISG        N/A
N.O. INTL ARPT CLOUDY    80  75  84 SE6       29.99S
N.O. LAKEFRONT CLOUDY    80  76  87 SE7       30.00S
N.O. DOWNTOWN* FAIR      81  73  78 SE5       30.00S
SLIDELL        MOCLDY    78  75  90 CALM      30.01R
BATON ROUGE    CLOUDY    75  73  93 E6        29.98F
BOOTHVILLE     MOCLDY    80  76  87 SE3       30.00S
BELLE CHASSE   CLOUDY    80  75  84 SE5       29.99R
BOGALUSA*        N/A     75  72  89 CALM      30.03S
GALLIANO*      NOT AVBL
NEW ROADS*     FAIR      75  74  97 E3        29.97F
GONZALES*      FAIR      76  76 100 CALM      29.98F
HAMMOND*       CLOUDY    75  72  88 CALM      30.02S
HOUMA*         CLOUDY    78  75  90 CALM      29.98S
PORT FOURCHON* SUNNY     82  75  78 SE12      29.99F

$$

LAZ041-044-053-054-301100-
SOUTHWEST LOUISIANA

CITY           SKY/WX    TMP DP  RH WIND       PRES   REMARKS
LAKE CHARLES   HVY RAIN  74  73  97 N5        29.91S VSB 1/2
LAFAYETTE      CLOUDY    76  74  93 CALM      29.95F
PATTERSON        N/A     75  73  94 E6        29.99F
SALT POINT       N/A     81  78  91 CALM      29.95S
NEW IBERIA     CLOUDY    76  73  91 E5        29.95F
CHENAULT AIRPK NOT AVBL

$$

LAZ027-028-301100-
CENTRAL LOUISIANA

CITY           SKY/WX    TMP DP  RH WIND       PRES   REMARKS
FORT POLK      LGT RAIN  74  73  97 SE9       29.95S
ALEXANDRIA INT CLOUDY    76  73  91 E8        29.95F
ALEXANDRIA     CLOUDY    76  73  91 E3        29.97F

$$

LAZ001-002-301100-
NORTHWEST LOUISIANA

CITY           SKY/WX    TMP DP  RH WIND       PRES   REMARKS
SHREVEPORT     MOCLDY    76  73  91 SE5       29.96R
BARKSDALE AFB  CLOUDY    75  72  90 SE7       29.97R
DTN SHREVEPORT CLOUDY    76  72  87 SE7       29.96S

$$

LAZ014-016-301100-
NORTHEAST LOUISIANA

CITY           SKY/WX    TMP DP  RH WIND       PRES   REMARKS
MONROE         LGT RAIN  76  74  93 S3        30.01R
TALLULAH       LGT RAIN  76  73  91 S5        30.01R

$$



USA.gov is the U.S. government's official web portal to all federal, state and local government web resources and services.